TECHNOSAT (42829 NORAD) Tracking and Keplerian Element Data

This shows tracking and keplerian element data for the satellite.

Feedback or suggestion? Click here.




ElementValue
Catalog42829
NameTECHNOSAT
Epoch Orbit7341
Epoch Day323.13622191
Epoch Year2018
RAAN219.5167
Inclination97.5821
Eccentricity0.0015412
Argument of Perigee48.0137
Mean Anonmoly312.2392
Mean Motion14.90888553
Decay Rate2.79E-06
L11 42829U 17042E 18323.13622191 .00000279 00000-0 33631-4 0 9999
L22 42829 97.5821 219.5167 0015412 48.0137 312.2392 14.90888553 73414

Live tracking and technical data element details for TECHNOSAT (NORAD 42829). TECHNOSAT can be tracked NOW for your location showing map with azimuth and elevation plus other details from your city location.

Track the satellite on the map from your city or location and see movement details for azimuth, elevation, latitude, longitude, range, height, and movement on the map or in text.







IsCatalogInMostPopularTable: catalog: 42829, numindb: 166
Update: records affected: 1



GetName: 42829 TECHNOSAT

Hit Count: updated at: Mon, 19 Nov 2018 11:43:08 GMT